Weather History for Pine Bluff, AR

Change the Weather History Date:

Monday, November 25, 2013

  Actual Average Record
Temperature  
Mean Temperature 33 °F 50 °F  
Max Temperature 35 °F 60 °F 82 °F (1908)
Min Temperature 31 °F 40 °F 18 °F (1950)
Degree Days  
Heating Degree Days 32 15  
Month to date heating degree days 349 285  
Since 1 July heating degree days 468 422  
Cooling Degree Days 0 0  
Month to date cooling degree days 6 10  
Year to date cooling degree days 2148 2129  
Moisture  
Dew Point 29 °F    
Average Humidity 80    
Maximum Humidity 96    
Minimum Humidity 63    
Precipitation  
Precipitation 0.23 in 0.17 in 1.70 in (1987)
Month to date precipitation 2.88 3.95  
Year to date precipitation 44.93 44.83  
Snow  
Snow T in 0.00 in - ()
Month to date snowfall T 0.0  
Since 1 July snowfall T 0.0  
Since 1 September snowfall T 0.0  
Snow Depth 0.00 in    
Sea Level Pressure  
Sea Level Pressure 30.27 in    
Wind  
Wind Speed 7 mph (NNE)    
Max Wind Speed 15 mph    
Max Gust Speed 18 mph    
Visibility 10 miles    
Events Rain    
T = Trace of Precipitation, MM = Missing Value Source: NWS Daily Summary

Daily Weather History Graph

Daily Weather History Graph

Search for Another Location

Airport:

Trip Planner

Search our weather history database for the weather conditions in past years. The results will help you decide how hot, cold, wet, or windy it might be!

Date:

Astronomy

Nov. 25, 2013 Rise Set
Actual Time 6:50 AM CST 4:59 PM CST
Civil Twilight 6:23 AM CST 5:26 PM CST
Nautical Twilight 5:52 AM CST 5:57 PM CST
Astronomical Twilight 5:22 AM CST 6:27 PM CST
Moon No Moon Rise 12:17 PM CST (11/25)
Length of Visible Light 11h 03m
Length of Day
10h 08m
Waning Gibbous, 51% of the Moon is Illuminated
Nov 25
Waning Gibbous
Nov 25
Last Quarter
Dec 2
New
Dec 9
First Quarter
Dec 17
Full

Hourly Weather History & Observations

Time (CST) Temp. Windchill Dew Point Humidity Pressure Visibility Wind Dir Wind Speed Gust Speed Precip Events Conditions
12:53 AM 32.0 °F 26.4 °F 21.9 °F 66% 30.43 in 10.0 mi North 5.8 mph - N/A   Overcast
1:53 AM 32.0 °F 24.8 °F 21.9 °F 66% 30.41 in 10.0 mi ENE 8.1 mph - N/A   Overcast
2:53 AM 32.0 °F 26.4 °F 23.0 °F 69% 30.40 in 10.0 mi NE 5.8 mph - N/A   Overcast
3:53 AM 32.0 °F 26.4 °F 21.9 °F 66% 30.38 in 10.0 mi NNE 5.8 mph - N/A   Overcast
4:53 AM 32.0 °F 26.4 °F 21.9 °F 66% 30.36 in 10.0 mi NE 5.8 mph - N/A   Overcast
5:53 AM 32.0 °F 27.5 °F 24.1 °F 73% 30.35 in 10.0 mi NNE 4.6 mph - 0.00 in   Overcast
6:53 AM 32.0 °F 27.5 °F 26.1 °F 79% 30.37 in 10.0 mi NNE 4.6 mph - 0.04 in   Overcast
7:53 AM 32.0 °F 28.7 °F 27.0 °F 82% 30.37 in 10.0 mi North 3.5 mph - 0.00 in   Overcast
8:53 AM 32.0 °F 26.4 °F 27.0 °F 82% 30.37 in 10.0 mi NE 5.8 mph - 0.02 in   Overcast
9:53 AM 32.0 °F 25.6 °F 28.0 °F 85% 30.36 in 10.0 mi ENE 6.9 mph - 0.02 in   Overcast
10:53 AM 32.0 °F 27.5 °F 28.0 °F 85% 30.32 in 10.0 mi ENE 4.6 mph - 0.05 in   Overcast
11:53 AM 33.1 °F 28.7 °F 28.9 °F 85% 30.30 in 10.0 mi NNE 4.6 mph - 0.01 in Rain Light Rain
12:19 PM 33.8 °F 27.7 °F 28.4 °F 81% 30.26 in 10.0 mi NE 6.9 mph - 0.01 in Rain Light Rain
12:28 PM 33.8 °F 27.7 °F 30.2 °F 87% 30.26 in 10.0 mi NE 6.9 mph - 0.01 in Rain Light Rain
12:43 PM 33.8 °F 28.6 °F 30.2 °F 87% 30.25 in 10.0 mi NE 5.8 mph - 0.01 in Rain Light Rain
12:53 PM 34.0 °F 28.8 °F 30.0 °F 85% 30.26 in 10.0 mi NNE 5.8 mph - 0.01 in Rain Light Rain
1:04 PM 33.8 °F 28.6 °F 30.2 °F 87% 30.25 in 10.0 mi NE 5.8 mph - 0.01 in Rain Light Rain
1:53 PM 33.1 °F 27.7 °F 30.0 °F 89% 30.24 in 10.0 mi North 5.8 mph - 0.01 in Rain Light Rain
2:22 PM 33.8 °F 27.0 °F 30.2 °F 87% 30.23 in 10.0 mi NNE 8.1 mph - 0.00 in Rain Light Rain
2:53 PM 34.0 °F 28.0 °F 30.9 °F 89% 30.22 in 9.0 mi NNE 6.9 mph - 0.02 in Rain Light Rain
3:17 PM 33.8 °F 27.7 °F 30.2 °F 87% 30.22 in 10.0 mi North 6.9 mph - 0.01 in Rain Light Rain
3:53 PM 34.0 °F 27.2 °F 32.0 °F 92% 30.22 in 8.0 mi NNE 8.1 mph - 0.03 in Rain Light Rain
4:10 PM 33.8 °F 27.0 °F 30.2 °F 87% 30.22 in 10.0 mi NNE 8.1 mph - 0.01 in Rain Light Rain
4:21 PM 33.8 °F 27.0 °F 30.2 °F 87% 30.23 in 10.0 mi North 8.1 mph - 0.01 in Rain Light Rain
4:53 PM 34.0 °F 27.2 °F 32.0 °F 92% 30.21 in 10.0 mi North 8.1 mph - 0.01 in   Overcast
5:50 PM 33.8 °F 27.0 °F 30.2 °F 87% 30.20 in 10.0 mi NNE 8.1 mph - N/A   Overcast
5:53 PM 34.0 °F 27.2 °F 30.9 °F 89% 30.20 in 10.0 mi NNE 8.1 mph - N/A   Overcast
6:38 PM 33.8 °F 26.4 °F 30.2 °F 87% 30.20 in 10.0 mi NE 9.2 mph - N/A   Overcast
6:53 PM 34.0 °F 27.2 °F 30.9 °F 89% 30.20 in 10.0 mi NNE 8.1 mph - N/A   Overcast
7:53 PM 34.0 °F 28.8 °F 30.9 °F 89% 30.22 in 8.0 mi NNE 5.8 mph - 0.00 in   Overcast
8:08 PM 33.8 °F 25.8 °F 32.0 °F 93% 30.21 in 4.0 mi North 10.4 mph - N/A   Overcast
8:53 PM 34.0 °F 26.6 °F 32.0 °F 92% 30.20 in 7.0 mi North 9.2 mph - 0.00 in Rain Light Rain
9:53 PM 35.1 °F 27.9 °F 33.1 °F 92% 30.18 in 8.0 mi North 9.2 mph - 0.01 in   Overcast
10:53 PM 34.0 °F 26.6 °F 32.0 °F 92% 30.18 in 10.0 mi North 9.2 mph - N/A   Overcast
11:53 PM 34.0 °F 25.0 °F 32.0 °F 92% 30.15 in 10.0 mi North 12.7 mph - 0.00 in Rain Light Rain